Regional Weather Roundup
Issued by NWS

Home | Current Version | Previous Version | Graphics & Text | Print | Product List | Glossary On
Versions: 1 2 3 4 5 6 7 8 9 10 11 12 13 14 15 16 17 18 19 20 21 22 23 24 25 26 27 28 29 30 31 32 33 34 35 36 37 38 39 40 41 42 43 44 45 46 47 48 49 50
000
ASUS43 KLMK 271402
RWRKY
KENTUCKY REGIONAL WEATHER ROUNDUP
NATIONAL WEATHER SERVICE LOUISVILLE KY
1000 AM EDT FRI MAY 27 2016

NOTE "FAIR" INDICATES FEW OR NO CLOUDS BELOW 12,000 FEET
WITH NO SIGNIFICANT WEATHER AND/OR OBSTRUCTIONS TO VISIBILITY.

KYZ001>023-026-027-061>063-070>075-271500-
WESTERN AND SOUTH CENTRAL KENTUCKY

CITY           SKY/WX    TMP DP  RH WIND       PRES   REMARKS
PADUCAH        CLOUDY    72  66  81 S9        29.95S
HENDERSON      CLOUDY    73  64  73 S9        29.97S
OWENSBORO      CLOUDY    77  68  73 S16       30.00S
HOPKINSVILLE   NOT AVBL
BOWLING GREEN  SUNNY     77  66  68 S12       30.04S
GLASGOW        NOT AVBL
$$

KYZ024-025-028>034-038-045-046-053-271500-
NORTH CENTRAL KENTUCKY

CITY           SKY/WX    TMP DP  RH WIND       PRES   REMARKS
LOUISVILLE/SDF PTSUNNY   73  65  75 S8        30.03S
LOUISVILLE/LOU MOSUNNY   73  65  75 S5        30.03F
FORT KNOX      NOT AVBL
$$

KYZ035>037-039>044-047>052-055>060-089>105-271500-
NORTHEAST KENTUCKY

CITY           SKY/WX    TMP DP  RH WIND       PRES   REMARKS
LEXINGTON      SUNNY     75  66  73 S9        30.07S
COVINGTON      PTSUNNY   74  66  76 S6        30.04F
FRANKFORT      SUNNY     75  66  73 S7        30.05S
$$

KYZ054-064>069-076>088-106>120-271500-
SOUTHEAST KENTUCKY

CITY           SKY/WX    TMP DP  RH WIND       PRES   REMARKS
JACKSON        SUNNY     74  64  71 VRB5      30.11S
LONDON         SUNNY     76  64  66 S8        30.11S
SOMERSET       NOT AVBL
MIDDLESBORO    SUNNY     73  66  77 CALM      30.14S
MONTICELLO     SUNNY     76  68  76 E8        30.11S
$$




USA.gov is the U.S. government's official web portal to all federal, state and local government web resources and services.